Location: Feigenhofen
(48.4939°N, 10.7793°E)
Time: 23:01:49
(UTC+00:00)

BREEZE-M DEB (TANK) - Pass Details

Date: 26 May 2022
Orbit: 319 x 13843 km, 49.6° (Epoch: 24 June)

Event Time Altitude Azimuth Distance (km) Brightness Sun altitude
Rises 00:48:01 0° 250° (WSW) 10,023 8.8 -17.3°
Reaches altitude 10° 00:57:45 10° 252° (WSW) 6,755 7.9 -16.6°
Maximum altitude 01:12:38 87° 165° (SSE) 1,099 4.2 -15.5°
Drops below altitude 10° 01:16:40 10° 77° (ENE) 1,991 6.3 -15.2°
Sets 01:18:03 0° 77° (ENE) 2,607 6.9 -15.1°
